SPOT 4

Satellite information

Favourite Embed

Satellite Type and Status

PAYLOADIN ORBIT

Key statistics

Satellite SPOT 4 at a glance.

Uptime

9905

Days in orbit

Revolutions

≈ 14.6

Per day

Orbit

SSO

Sun Synchronous Orbit

Inclination

98.2

Latest

Satellite identification and parameters

Extended collection of information and parameters for SPOT 4.

Object identification

Identified? True

Debris? False

Object name: SPOT 4

International designator: 1998-017A

Object number (NORAD): 25260

Object ID (CCSDS): 25260

Country: FRANCE (FR)

Current information (Y/N): Y

RCS size: LARGE

Orbital parameters

Period: 98.924 minutes

Inclination: 98.2479 deg

SMA: 7085.372 km

Apoapsis: 716.803 km

Periapsis: 697.671 km

RAAN: 220.3835 deg

Eccentricy: 0.0013501

Argument of periapsis: 49.847 deg

Mean anomaly: 310.3908 deg

Mean motion: 14.55655982 rev/day

Mean motion (dot): 0.00000687 rev/day2

B* drag term: 0.00016763 1/REarth

Two-line elements (TLE)

Creation date: May 5, 2025, 2:11 a.m.

Reference frame: TEME

Reference center: EARTH

Epoch: May 4, 2025, 9:27 p.m. UTC

TLE line 0: 0 SPOT 4

TLE line 1: 1 25260U 98017A 25124.89408923 .00000687 00000-0 16763-3 0 9994

TLE line 2: 2 25260 98.2479 220.3835 0013501 49.8470 310.3908 14.55655982419908

Live tracking on map

Real-time ground track for satellite SPOT 4.

In-orbit conjunctions

A list of the most updated potential collisions computed for object SPOT 4.

Target Orbit TCA Probability of collision Miss distance Type
CZ-6A DEB LEO 2025-02-12 23:19:40 0.0001832623 302.0 (m) DEBRIS
CZ-6A DEB LEO 2025-02-09 06:15:35 0.0001552856 803.0 (m) DEBRIS
CZ-6A DEB SSO 2024-11-07 11:27:37 0.0005535772 517.0 (m) DEBRIS
NOAA 17 DEB SSO 2024-10-24 02:33:29 0.0001056789 536.0 (m) DEBRIS
FENGYUN 1C DEB SSO 2024-10-05 08:02:49 0.0003441163 317.0 (m) DEBRIS

Associated space launch

The satellites SPOT 4 (Satellite Probatoire de l'Observation de la Terre) was a second generation of SPOT earth observation satellite operated by Spot Image.

SPOT 4 was lifted into orbit during the mission ‘Ariane 40 | SPOT-4’, on board a Ariane 40 space rocket.

The launch took place on March 24, 1998, 1:46 a.m. from Ariane Launch Area 2.

For more information about the launch, click the button.

Launch to space Ariane 40 | SPOT-4
Ariane 40 | SPOT-4

Agency: N/A

Status: Launch Successful

Launch date: March 24, 1998, 1:46 a.m. UTC

Rocket: Ariane 40

Launch pad: Ariane Launch Area 2

Location: Guiana Space Centre, French Guiana

...

Latest news about this satellite

There are no fresh news available about this satellite. Check back as we update our databases every day.


Newsletter sign-up

Weekly statistics, charts and insights to help you stay on top of the space industry.